Time,TemperatureF,DewpointF,PressureIn,WindDirection,WindDirectionDegrees,WindSpeedMPH,WindSpeedGustMPH,Humidity,HourlyPrecipIn,Conditions,Clouds,dailyrainin,SoftwareType,DateUTC
2013-04-25 00:00:00,35.7,32.8,30.03,NW,311,6.0,11.0,89,0.00,,,0.00,VWS V14.01,2013-04-25 05:00:00,
2013-04-25 00:05:00,35.6,32.7,30.03,WNW,303,6.0,14.0,89,0.00,,,0.00,VWS V14.01,2013-04-25 05:05:00,
2013-04-25 00:11:00,35.6,32.7,30.03,WNW,290,10.0,14.0,89,0.00,,,0.00,VWS V14.01,2013-04-25 05:11:00,
2013-04-25 00:15:00,35.6,32.7,30.03,NW,315,4.0,14.0,89,0.00,,,0.00,VWS V14.01,2013-04-25 05:15:00,
2013-04-25 00:16:00,35.6,32.7,30.03,WNW,296,4.0,6.0,89,0.00,,,0.00,VWS V14.01,2013-04-25 05:16:00,
2013-04-25 00:21:00,35.5,32.6,30.03,NW,315,5.0,12.0,89,0.00,,,0.00,VWS V14.01,2013-04-25 05:21:00,
2013-04-25 00:26:00,35.3,32.4,30.03,WSW,255,2.0,12.0,89,0.00,,,0.00,VWS V14.01,2013-04-25 05:26:00,
2013-04-25 00:30:00,35.2,32.3,30.03,NNW,334,4.0,12.0,89,0.00,,,0.00,VWS V14.01,2013-04-25 05:30:00,
2013-04-25 00:31:00,35.2,32.3,30.03,NW,325,4.0,10.0,89,0.00,,,0.00,VWS V14.01,2013-04-25 05:31:00,
2013-04-25 00:36:00,35.1,32.5,30.03,WNW,290,6.0,10.0,90,0.00,,,0.00,VWS V14.01,2013-04-25 05:36:00,
2013-04-25 00:41:00,35.0,32.1,30.04,WNW,296,7.0,11.0,89,0.00,,,0.00,VWS V14.01,2013-04-25 05:41:00,
2013-04-25 00:45:00,34.9,32.0,30.04,WNW,300,5.0,11.0,89,0.00,,,0.00,VWS V14.01,2013-04-25 05:45:00,
2013-04-25 00:46:00,34.9,32.0,30.04,NNW,328,4.0,6.0,89,0.00,,,0.00,VWS V14.01,2013-04-25 05:46:00,
2013-04-25 00:51:00,34.8,31.9,30.04,NNW,332,4.0,13.0,89,0.00,,,0.00,VWS V14.01,2013-04-25 05:51:00,
2013-04-25 00:56:00,34.7,31.8,30.05,WNW,288,6.0,13.0,89,0.00,,,0.00,VWS V14.01,2013-04-25 05:56:00,
2013-04-25 01:00:00,34.7,32.1,30.05,NW,306,5.0,13.0,90,0.00,,,0.00,VWS V14.01,2013-04-25 06:00:00,
2013-04-25 01:01:00,34.6,32.0,30.05,NW,326,4.0,8.0,90,0.00,,,0.00,VWS V14.01,2013-04-25 06:01:00,
2013-04-25 01:06:00,34.4,31.5,30.05,NW,319,0.0,11.0,89,0.00,,,0.00,VWS V14.01,2013-04-25 06:06:00,
2013-04-25 01:11:00,34.4,31.8,30.05,West,274,5.0,11.0,90,0.00,,,0.00,VWS V14.01,2013-04-25 06:11:00,
2013-04-25 01:15:00,34.3,31.7,30.05,NW,306,8.0,11.0,90,0.00,,,0.00,VWS V14.01,2013-04-25 06:15:00,
2013-04-25 01:17:00,34.2,31.3,30.05,West,275,3.0,8.0,89,0.00,,,0.00,VWS V14.01,2013-04-25 06:17:00,
2013-04-25 01:22:00,34.1,31.5,30.05,NW,323,8.0,9.0,90,0.00,,,0.00,VWS V14.01,2013-04-25 06:22:00,
2013-04-25 01:27:00,34.1,31.5,30.06,WNW,284,9.0,11.0,90,0.00,,,0.00,VWS V14.01,2013-04-25 06:27:00,
2013-04-25 01:30:00,34.0,31.4,30.06,WNW,300,8.0,12.0,90,0.00,,,0.00,VWS V14.01,2013-04-25 06:30:00,
2013-04-25 01:32:00,33.9,31.3,30.06,NW,308,2.0,13.0,90,0.00,,,0.00,VWS V14.01,2013-04-25 06:32:00,
2013-04-25 01:37:00,33.9,31.3,30.06,NNW,335,4.0,13.0,90,0.00,,,0.00,VWS V14.01,2013-04-25 06:37:00,
2013-04-25 01:42:00,33.8,31.2,30.06,NW,320,5.0,13.0,90,0.00,,,0.00,VWS V14.01,2013-04-25 06:42:00,
2013-04-25 01:45:00,33.8,31.2,30.07,WNW,299,2.0,13.0,90,0.00,,,0.00,VWS V14.01,2013-04-25 06:45:00,
2013-04-25 01:47:00,33.8,32.8,30.06,NNW,338,4.0,9.0,96,0.00,,,0.00,VWS V14.01,2013-04-25 06:47:00,
2013-04-25 01:52:00,33.7,30.8,30.07,NW,323,6.0,9.0,89,0.00,,,0.00,VWS V14.01,2013-04-25 06:52:00,
2013-04-25 01:57:00,33.6,30.7,30.07,WNW,301,3.0,12.0,89,0.00,,,0.00,VWS V14.01,2013-04-25 06:57:00,
2013-04-25 02:00:00,33.7,30.8,30.07,West,269,4.0,12.0,89,0.00,,,0.00,VWS V14.01,2013-04-25 07:00:00,
2013-04-25 02:02:00,33.6,30.7,30.07,NW,304,4.0,14.0,89,0.00,,,0.00,VWS V14.01,2013-04-25 07:02:00,
2013-04-25 02:07:00,33.6,30.7,30.07,SSW,213,2.0,14.0,89,0.00,,,0.00,VWS V14.01,2013-04-25 07:07:00,
2013-04-25 02:12:00,33.6,30.7,30.07,WNW,292,1.0,14.0,89,0.00,,,0.00,VWS V14.01,2013-04-25 07:12:00,
2013-04-25 02:15:00,33.5,30.6,30.07,North,355,4.0,14.0,89,0.00,,,0.00,VWS V14.01,2013-04-25 07:15:00,
2013-04-25 02:17:00,33.5,30.3,30.07,NNW,348,2.0,8.0,88,0.00,,,0.00,VWS V14.01,2013-04-25 07:17:00,
2013-04-25 02:23:00,33.5,30.3,30.07,NW,321,2.0,8.0,88,0.00,,,0.00,VWS V14.01,2013-04-25 07:23:00,
2013-04-25 02:28:00,33.5,30.6,30.07,WNW,290,1.0,8.0,89,0.00,,,0.00,VWS V14.01,2013-04-25 07:28:00,
2013-04-25 02:30:00,33.5,30.6,30.07,SW,230,6.0,8.0,89,0.00,,,0.00,VWS V14.01,2013-04-25 07:30:00,
2013-04-25 02:33:00,33.5,30.3,30.08,WNW,293,2.0,9.0,88,0.00,,,0.00,VWS V14.01,2013-04-25 07:33:00,
2013-04-25 02:38:00,33.4,30.2,30.08,NNW,344,1.0,9.0,88,0.00,,,0.00,VWS V14.01,2013-04-25 07:38:00,
2013-04-25 02:43:00,33.4,30.2,30.08,NW,305,2.0,9.0,88,0.00,,,0.00,VWS V14.01,2013-04-25 07:43:00,
2013-04-25 02:45:00,33.4,30.2,30.08,WNW,300,4.0,9.0,88,0.00,,,0.00,VWS V14.01,2013-04-25 07:45:00,
2013-04-25 02:48:00,33.4,30.2,30.08,West,268,7.0,9.0,88,0.00,,,0.00,VWS V14.01,2013-04-25 07:48:00,
2013-04-25 02:53:00,33.4,30.2,30.08,West,265,0.0,9.0,88,0.00,,,0.00,VWS V14.01,2013-04-25 07:53:00,
2013-04-25 02:58:00,33.4,30.0,30.08,WNW,283,6.0,9.0,87,0.00,,,0.00,VWS V14.01,2013-04-25 07:58:00,
2013-04-25 03:00:00,33.4,30.0,30.08,West,275,2.0,9.0,87,0.00,,,0.00,VWS V14.01,2013-04-25 08:00:00,
2013-04-25 03:03:00,33.4,30.0,30.08,SSW,202,2.0,6.0,87,0.00,,,0.00,VWS V14.01,2013-04-25 08:03:00,
2013-04-25 03:08:00,33.4,30.0,30.08,NW,310,4.0,6.0,87,0.00,,,0.00,VWS V14.01,2013-04-25 08:08:00,
2013-04-25 03:13:00,33.4,30.0,30.08,NW,311,0.0,8.0,87,0.00,,,0.00,VWS V14.01,2013-04-25 08:13:00,
2013-04-25 03:15:00,33.4,30.0,30.08,NW,312,1.0,8.0,87,0.00,,,0.00,VWS V14.01,2013-04-25 08:15:00,
2013-04-25 03:18:00,33.4,30.0,30.08,West,277,3.0,6.0,87,0.00,,,0.00,VWS V14.01,2013-04-25 08:18:00,
2013-04-25 03:23:00,33.4,30.0,30.08,NNW,336,6.0,6.0,87,0.00,,,0.00,VWS V14.01,2013-04-25 08:23:00,
2013-04-25 03:28:00,33.3,29.9,30.09,WNW,296,2.0,9.0,87,0.00,,,0.00,VWS V14.01,2013-04-25 08:28:00,
2013-04-25 03:30:00,33.3,29.9,30.09,WNW,299,2.0,9.0,87,0.00,,,0.00,VWS V14.01,2013-04-25 08:30:00,
2013-04-25 03:33:00,33.3,29.9,30.09,NNW,329,3.0,8.0,87,0.00,,,0.00,VWS V14.01,2013-04-25 08:33:00,
2013-04-25 03:39:00,33.3,29.9,30.09,NW,311,5.0,8.0,87,0.00,,,0.00,VWS V14.01,2013-04-25 08:39:00,
2013-04-25 03:44:00,33.3,29.9,30.09,NW,317,1.0,8.0,87,0.00,,,0.00,VWS V14.01,2013-04-25 08:44:00,
2013-04-25 03:45:00,33.3,29.9,30.09,NW,318,0.0,8.0,87,0.00,,,0.00,VWS V14.01,2013-04-25 08:45:00,
2013-04-25 03:49:00,33.2,29.8,30.10,NW,317,4.0,7.0,87,0.00,,,0.00,VWS V14.01,2013-04-25 08:49:00,
2013-04-25 03:54:00,33.2,29.5,30.10,West,279,8.0,9.0,86,0.00,,,0.00,VWS V14.01,2013-04-25 08:54:00,
2013-04-25 03:59:00,33.2,29.5,30.10,WNW,298,9.0,9.0,86,0.00,,,0.00,VWS V14.01,2013-04-25 08:59:00,
2013-04-25 04:00:00,33.2,29.5,30.10,NW,313,8.0,9.0,86,0.00,,,0.00,VWS V14.01,2013-04-25 09:00:00,
2013-04-25 04:04:00,33.1,29.4,30.10,NW,304,4.0,9.0,86,0.00,,,0.00,VWS V14.01,2013-04-25 09:04:00,
2013-04-25 04:09:00,33.1,29.4,30.10,WNW,293,3.0,9.0,86,0.00,,,0.00,VWS V14.01,2013-04-25 09:09:00,
2013-04-25 04:14:00,33.1,29.7,30.11,WNW,283,2.0,6.0,87,0.00,,,0.00,VWS V14.01,2013-04-25 09:14:00,
2013-04-25 04:15:00,33.1,31.0,30.11,WNW,292,4.0,9.0,92,0.00,,,0.00,VWS V14.01,2013-04-25 09:15:00,
2013-04-25 04:19:00,33.1,31.0,30.11,WNW,283,4.0,6.0,92,0.00,,,0.00,VWS V14.01,2013-04-25 09:19:00,
2013-04-25 04:24:00,33.0,29.3,30.11,NW,319,3.0,7.0,86,0.00,,,0.00,VWS V14.01,2013-04-25 09:24:00,
2013-04-25 04:30:00,33.0,29.3,30.11,WNW,287,4.0,5.0,86,0.00,,,0.00,VWS V14.01,2013-04-25 09:30:00,
2013-04-25 04:35:00,33.0,29.3,30.11,WNW,302,5.0,8.0,86,0.00,,,0.00,VWS V14.01,2013-04-25 09:35:00,
2013-04-25 04:40:00,33.0,29.6,30.12,WNW,292,4.0,11.0,87,0.00,,,0.00,VWS V14.01,2013-04-25 09:40:00,
2013-04-25 04:45:00,33.0,29.3,30.12,NNW,330,1.0,5.0,86,0.00,,,0.00,VWS V14.01,2013-04-25 09:45:00,
2013-04-25 04:50:00,33.0,29.3,30.12,WNW,300,2.0,7.0,86,0.00,,,0.00,VWS V14.01,2013-04-25 09:50:00,
2013-04-25 04:55:00,33.0,29.3,30.12,NW,313,8.0,8.0,86,0.00,,,0.00,VWS V14.01,2013-04-25 09:55:00,
2013-04-25 05:00:00,33.0,29.3,30.12,WNW,300,7.0,7.0,86,0.00,,,0.00,VWS V14.01,2013-04-25 10:00:00,
2013-04-25 05:05:00,33.0,29.3,30.12,WNW,284,5.0,7.0,86,0.00,,,0.00,VWS V14.01,2013-04-25 10:05:00,
2013-04-25 05:10:00,33.0,29.3,30.12,West,273,2.0,8.0,86,0.00,,,0.00,VWS V14.01,2013-04-25 10:10:00,
2013-04-25 05:15:00,33.0,29.3,30.13,West,277,1.0,5.0,86,0.00,,,0.00,VWS V14.01,2013-04-25 10:15:00,
2013-04-25 05:20:00,32.9,29.2,30.13,NW,315,3.0,7.0,86,0.00,,,0.00,VWS V14.01,2013-04-25 10:20:00,
2013-04-25 05:25:00,32.9,29.2,30.13,WNW,294,1.0,7.0,86,0.00,,,0.00,VWS V14.01,2013-04-25 10:25:00,
2013-04-25 05:30:00,32.9,29.5,30.14,WNW,288,4.0,5.0,87,0.00,,,0.00,VWS V14.01,2013-04-25 10:30:00,
2013-04-25 05:36:00,32.8,29.1,30.14,NNW,346,2.0,6.0,86,0.00,,,0.00,VWS V14.01,2013-04-25 10:36:00,
2013-04-25 05:41:00,32.8,29.1,30.14,WNW,282,3.0,6.0,86,0.00,,,0.00,VWS V14.01,2013-04-25 10:41:00,
2013-04-25 05:45:00,32.8,29.1,30.14,NW,306,3.0,7.0,86,0.00,,,0.00,VWS V14.01,2013-04-25 10:45:00,
2013-04-25 05:46:00,32.8,29.1,30.14,West,265,2.0,8.0,86,0.00,,,0.00,VWS V14.01,2013-04-25 10:46:00,
2013-04-25 05:51:00,32.7,29.0,30.14,West,262,2.0,8.0,86,0.00,,,0.00,VWS V14.01,2013-04-25 10:51:00,
2013-04-25 05:56:00,32.7,29.3,30.14,WNW,302,4.0,8.0,87,0.00,,,0.00,VWS V14.01,2013-04-25 10:56:00,
2013-04-25 06:00:00,32.7,29.3,30.14,West,275,3.0,8.0,87,0.00,,,0.00,VWS V14.01,2013-04-25 11:00:00,
2013-04-25 06:01:00,32.7,29.3,30.14,West,281,5.0,6.0,87,0.00,,,0.00,VWS V14.01,2013-04-25 11:01:00,
2013-04-25 06:06:00,32.6,28.9,30.15,NW,317,2.0,6.0,86,0.00,,,0.00,VWS V14.01,2013-04-25 11:06:00,
2013-04-25 06:11:00,32.5,29.1,30.15,West,277,2.0,6.0,87,0.00,,,0.00,VWS V14.01,2013-04-25 11:11:00,
2013-04-25 06:15:00,32.5,28.8,30.15,WNW,296,1.0,6.0,86,0.00,,,0.00,VWS V14.01,2013-04-25 11:15:00,
2013-04-25 06:16:00,32.5,29.1,30.15,West,259,0.0,6.0,87,0.00,,,0.00,VWS V14.01,2013-04-25 11:16:00,
2013-04-25 06:21:00,32.5,29.1,30.16,NNW,338,3.0,7.0,87,0.00,,,0.00,VWS V14.01,2013-04-25 11:21:00,
2013-04-25 06:26:00,32.6,29.2,30.16,NW,313,2.0,8.0,87,0.00,,,0.00,VWS V14.01,2013-04-25 11:26:00,
2013-04-25 06:30:00,32.5,28.8,30.16,West,278,3.0,8.0,86,0.00,,,0.00,VWS V14.01,2013-04-25 11:30:00,
2013-04-25 06:31:00,32.5,28.8,30.16,WNW,291,2.0,5.0,86,0.00,,,0.00,VWS V14.01,2013-04-25 11:31:00,
2013-04-25 06:36:00,32.4,28.7,30.16,NW,306,3.0,8.0,86,0.00,,,0.00,VWS V14.01,2013-04-25 11:36:00,
2013-04-25 06:41:00,32.4,28.7,30.16,West,271,0.0,8.0,86,0.00,,,0.00,VWS V14.01,2013-04-25 11:41:00,
2013-04-25 06:45:00,32.4,29.0,30.16,West,273,3.0,8.0,87,0.00,,,0.00,VWS V14.01,2013-04-25 11:45:00,
2013-04-25 06:47:00,32.5,29.1,30.16,West,281,1.0,3.0,87,0.00,,,0.00,VWS V14.01,2013-04-25 11:47:00,
2013-04-25 06:52:00,32.5,29.1,30.16,West,281,3.0,6.0,87,0.00,,,0.00,VWS V14.01,2013-04-25 11:52:00,
2013-04-25 06:57:00,32.5,29.1,30.17,West,273,0.0,6.0,87,0.00,,,0.00,VWS V14.01,2013-04-25 11:57:00,
2013-04-25 07:00:00,32.5,29.1,30.17,WNW,292,2.0,6.0,87,0.00,,,0.00,VWS V14.01,2013-04-25 12:00:00,
2013-04-25 07:02:00,32.5,28.8,30.17,NW,305,1.0,6.0,86,0.00,,,0.00,VWS V14.01,2013-04-25 12:02:00,
2013-04-25 07:07:00,32.4,28.7,30.17,NW,308,5.0,6.0,86,0.00,,,0.00,VWS V14.01,2013-04-25 12:07:00,
2013-04-25 07:12:00,32.5,29.1,30.17,WSW,243,1.0,8.0,87,0.00,,,0.00,VWS V14.01,2013-04-25 12:12:00,
2013-04-25 07:15:00,32.5,29.1,30.18,West,272,5.0,8.0,87,0.00,,,0.00,VWS V14.01,2013-04-25 12:15:00,
2013-04-25 07:17:00,32.5,29.1,30.18,WNW,282,2.0,5.0,87,0.00,,,0.00,VWS V14.01,2013-04-25 12:17:00,
2013-04-25 07:22:00,32.6,29.2,30.18,WNW,294,2.0,5.0,87,0.00,,,0.00,VWS V14.01,2013-04-25 12:22:00,
2013-04-25 07:27:00,32.6,29.2,30.18,West,276,2.0,5.0,87,0.00,,,0.00,VWS V14.01,2013-04-25 12:27:00,
2013-04-25 07:30:00,32.6,29.2,30.18,West,277,0.0,5.0,87,0.00,,,0.00,VWS V14.01,2013-04-25 12:30:00,
2013-04-25 07:32:00,32.6,29.2,30.19,West,259,0.0,3.0,87,0.00,,,0.00,VWS V14.01,2013-04-25 12:32:00,
2013-04-25 07:37:00,32.7,29.3,30.19,NNW,329,0.0,5.0,87,0.00,,,0.00,VWS V14.01,2013-04-25 12:37:00,
2013-04-25 07:42:00,32.8,29.1,30.19,WNW,285,3.0,10.0,86,0.00,,,0.00,VWS V14.01,2013-04-25 12:42:00,
2013-04-25 07:45:00,32.8,29.1,30.19,NW,321,0.0,10.0,86,0.00,,,0.00,VWS V14.01,2013-04-25 12:45:00,
2013-04-25 07:47:00,32.8,29.1,30.19,NW,307,0.0,6.0,86,0.00,,,0.00,VWS V14.01,2013-04-25 12:47:00,
2013-04-25 07:53:00,32.9,29.2,30.20,NW,312,0.0,6.0,86,0.00,,,0.00,VWS V14.01,2013-04-25 12:53:00,
2013-04-25 07:58:00,32.8,28.8,30.20,WNW,302,3.0,8.0,85,0.00,,,0.00,VWS V14.01,2013-04-25 12:58:00,
2013-04-25 08:00:00,32.8,28.8,30.20,West,279,1.0,8.0,85,0.00,,,0.00,VWS V14.01,2013-04-25 13:00:00,
2013-04-25 08:03:00,32.9,29.2,30.20,SSW,205,1.0,5.0,86,0.00,,,0.00,VWS V14.01,2013-04-25 13:03:00,
2013-04-25 08:08:00,33.3,29.3,30.21,NW,312,0.0,8.0,85,0.00,,,0.00,VWS V14.01,2013-04-25 13:08:00,
2013-04-25 08:13:00,33.6,29.6,30.21,East,80,0.0,8.0,85,0.00,,,0.00,VWS V14.01,2013-04-25 13:13:00,
2013-04-25 08:15:00,33.7,29.7,30.21,North,350,0.0,8.0,85,0.00,,,0.00,VWS V14.01,2013-04-25 13:15:00,
2013-04-25 08:18:00,33.9,29.9,30.21,WNW,288,1.0,2.0,85,0.00,,,0.00,VWS V14.01,2013-04-25 13:18:00,
2013-04-25 08:23:00,34.2,30.2,30.22,SW,228,2.0,6.0,85,0.00,,,0.00,VWS V14.01,2013-04-25 13:23:00,
2013-04-25 08:28:00,34.9,30.6,30.22,NNW,339,1.0,6.0,84,0.00,,,0.00,VWS V14.01,2013-04-25 13:28:00,
2013-04-25 08:30:00,35.0,30.7,30.22,NE,43,0.0,6.0,84,0.00,,,0.00,VWS V14.01,2013-04-25 13:30:00,
2013-04-25 08:33:00,35.2,30.3,30.22,NNE,18,1.0,3.0,82,0.00,,,0.00,VWS V14.01,2013-04-25 13:33:00,
2013-04-25 08:38:00,35.5,30.6,30.22,East,93,1.0,3.0,82,0.00,,,0.00,VWS V14.01,2013-04-25 13:38:00,
2013-04-25 08:44:00,35.8,30.5,30.22,West,268,1.0,3.0,81,0.00,,,0.00,VWS V14.01,2013-04-25 13:44:00,
2013-04-25 08:45:00,35.8,30.5,30.22,WNW,300,3.0,3.0,81,0.00,,,0.00,VWS V14.01,2013-04-25 13:45:00,
2013-04-25 08:49:00,35.9,30.0,30.23,West,281,1.0,8.0,79,0.00,,,0.00,VWS V14.01,2013-04-25 13:49:00,
2013-04-25 08:54:00,36.3,31.0,30.22,WNW,288,2.0,8.0,81,0.00,,,0.00,VWS V14.01,2013-04-25 13:54:00,
2013-04-25 08:59:00,36.8,30.9,30.22,East,100,0.0,0.0,79,0.00,,,0.00,VWS V14.01,2013-04-25 13:59:00,
2013-04-25 09:00:00,36.8,30.9,30.22,SSE,150,0.0,8.0,79,0.00,,,0.00,VWS V14.01,2013-04-25 14:00:00,
2013-04-25 09:04:00,36.7,30.2,30.22,West,279,0.0,6.0,77,0.00,,,0.00,VWS V14.01,2013-04-25 14:04:00,
2013-04-25 09:09:00,37.4,31.5,30.22,South,184,0.0,6.0,79,0.00,,,0.00,VWS V14.01,2013-04-25 14:09:00,
2013-04-25 09:14:00,37.9,31.4,30.22,East,88,2.0,2.0,77,0.00,,,0.00,VWS V14.01,2013-04-25 14:14:00,
2013-04-25 09:15:00,37.9,31.4,30.22,South,174,1.0,6.0,77,0.00,,,0.00,VWS V14.01,2013-04-25 14:15:00,
2013-04-25 09:19:00,38.3,31.7,30.22,SW,236,0.0,3.0,77,0.00,,,0.00,VWS V14.01,2013-04-25 14:19:00,
2013-04-25 09:24:00,38.3,31.7,30.22,SE,140,0.0,5.0,77,0.00,,,0.00,VWS V14.01,2013-04-25 14:24:00,
2013-04-25 09:29:00,38.3,31.4,30.22,NNW,340,2.0,2.0,76,0.00,,,0.00,VWS V14.01,2013-04-25 14:29:00,
2013-04-25 09:30:00,38.3,31.4,30.22,NE,34,0.0,5.0,76,0.00,,,0.00,VWS V14.01,2013-04-25 14:30:00,
2013-04-25 09:35:00,38.2,31.3,30.23,East,90,1.0,2.0,76,0.00,,,0.00,VWS V14.01,2013-04-25 14:35:00,
2013-04-25 09:40:00,38.6,31.4,30.23,West,279,3.0,5.0,75,0.00,,,0.00,VWS V14.01,2013-04-25 14:40:00,
2013-04-25 09:45:00,37.6,30.4,30.23,WNW,297,0.0,0.0,75,0.00,,,0.00,VWS V14.01,2013-04-25 14:45:00,
2013-04-25 09:50:00,37.8,31.2,30.23,NNW,336,2.0,9.0,77,0.00,,,0.00,VWS V14.01,2013-04-25 14:50:00,
2013-04-25 09:55:00,37.8,30.6,30.23,West,281,3.0,9.0,75,0.00,,,0.00,VWS V14.01,2013-04-25 14:55:00,
2013-04-25 10:00:00,37.2,30.7,30.24,East,88,0.0,5.0,77,0.00,,,0.00,VWS V14.01,2013-04-25 15:00:00,
2013-04-25 10:05:00,37.9,31.0,30.24,NW,304,0.0,6.0,76,0.00,,,0.00,VWS V14.01,2013-04-25 15:05:00,
2013-04-25 10:10:00,38.8,31.6,30.24,WNW,290,5.0,6.0,75,0.00,,,0.00,VWS V14.01,2013-04-25 15:10:00,
2013-04-25 10:15:00,38.2,30.3,30.24,NNW,333,0.0,7.0,73,0.00,,,0.00,VWS V14.01,2013-04-25 15:15:00,
2013-04-25 10:21:00,38.2,31.3,30.24,WNW,288,1.0,7.0,76,0.00,,,0.00,VWS V14.01,2013-04-25 15:21:00,
2013-04-25 10:26:00,39.2,31.3,30.24,WNW,289,0.0,7.0,73,0.00,,,0.00,VWS V14.01,2013-04-25 15:26:00,
2013-04-25 10:30:00,39.3,31.7,30.25,East,92,2.0,7.0,74,0.00,,,0.00,VWS V14.01,2013-04-25 15:30:00,
2013-04-25 10:31:00,39.5,31.9,30.25,South,171,0.0,2.0,74,0.00,,,0.00,VWS V14.01,2013-04-25 15:31:00,
2013-04-25 10:36:00,39.2,31.0,30.25,South,170,0.0,8.0,72,0.00,,,0.00,VWS V14.01,2013-04-25 15:36:00,
2013-04-25 10:41:00,39.4,31.1,30.25,WSW,243,2.0,9.0,72,0.00,,,0.00,VWS V14.01,2013-04-25 15:41:00,
2013-04-25 10:45:00,39.4,31.8,30.25,SW,232,2.0,9.0,74,0.00,,,0.00,VWS V14.01,2013-04-25 15:45:00,
2013-04-25 10:46:00,39.5,31.6,30.25,WNW,285,0.0,5.0,73,0.00,,,0.00,VWS V14.01,2013-04-25 15:46:00,
2013-04-25 10:51:00,40.0,31.7,30.25,SE,127,1.0,5.0,72,0.00,,,0.00,VWS V14.01,2013-04-25 15:51:00,
2013-04-25 10:56:00,40.2,32.2,30.25,SE,139,0.0,5.0,73,0.00,,,0.00,VWS V14.01,2013-04-25 15:56:00,
2013-04-25 11:00:00,40.2,31.6,30.25,West,277,0.0,5.0,71,0.00,,,0.00,VWS V14.01,2013-04-25 16:00:00,
2013-04-25 11:01:00,40.4,32.1,30.25,West,271,1.0,5.0,72,0.00,,,0.00,VWS V14.01,2013-04-25 16:01:00,
2013-04-25 11:06:00,41.2,34.2,30.25,ESE,113,1.0,5.0,76,0.00,,,0.00,VWS V14.01,2013-04-25 16:06:00,
2013-04-25 11:12:00,42.0,32.9,30.25,East,101,1.0,5.0,70,0.00,,,0.00,VWS V14.01,2013-04-25 16:12:00,
2013-04-25 11:15:00,42.3,33.2,30.25,NNW,344,1.0,5.0,70,0.00,,,0.00,VWS V14.01,2013-04-25 16:15:00,
2013-04-25 11:17:00,42.5,33.1,30.24,NNW,337,0.0,2.0,69,0.00,,,0.00,VWS V14.01,2013-04-25 16:17:00,
2013-04-25 11:22:00,42.9,33.1,30.24,NNE,12,0.0,6.0,68,0.00,,,0.00,VWS V14.01,2013-04-25 16:22:00,
2013-04-25 11:27:00,43.4,33.6,30.24,South,173,0.0,6.0,68,0.00,,,0.00,VWS V14.01,2013-04-25 16:27:00,
2013-04-25 11:30:00,43.5,32.5,30.24,SSW,193,0.0,6.0,65,0.00,,,0.00,VWS V14.01,2013-04-25 16:30:00,
2013-04-25 11:32:00,44.0,33.0,30.24,East,96,1.0,4.0,65,0.00,,,0.00,VWS V14.01,2013-04-25 16:32:00,
2013-04-25 11:37:00,43.9,33.3,30.24,West,269,0.0,4.0,66,0.00,,,0.00,VWS V14.01,2013-04-25 16:37:00,
2013-04-25 11:42:00,43.4,32.4,30.24,West,261,1.0,6.0,65,0.00,,,0.00,VWS V14.01,2013-04-25 16:42:00,
2013-04-25 11:45:00,43.4,32.4,30.25,West,264,0.0,6.0,65,0.00,,,0.00,VWS V14.01,2013-04-25 16:45:00,
2013-04-25 11:47:00,43.5,32.9,30.24,SW,234,1.0,4.0,66,0.00,,,0.00,VWS V14.01,2013-04-25 16:47:00,
2013-04-25 11:52:00,43.5,32.5,30.24,West,277,3.0,6.0,65,0.00,,,0.00,VWS V14.01,2013-04-25 16:52:00,
2013-04-25 11:57:00,43.4,32.4,30.24,NW,317,2.0,6.0,65,0.00,,,0.00,VWS V14.01,2013-04-25 16:57:00,
2013-04-25 12:00:00,43.7,33.5,30.24,South,177,5.0,6.0,67,0.00,,,0.00,VWS V14.01,2013-04-25 17:00:00,
2013-04-25 12:02:00,44.1,32.7,30.24,NW,307,0.0,5.0,64,0.00,,,0.00,VWS V14.01,2013-04-25 17:02:00,
2013-04-25 12:07:00,44.0,32.2,30.24,NW,317,0.0,5.0,63,0.00,,,0.00,VWS V14.01,2013-04-25 17:07:00,
2013-04-25 12:13:00,44.0,32.6,30.24,WSW,247,4.0,5.0,64,0.00,,,0.00,VWS V14.01,2013-04-25 17:13:00,
2013-04-25 12:15:00,44.0,32.2,30.24,NNW,328,0.0,5.0,63,0.00,,,0.00,VWS V14.01,2013-04-25 17:15:00,
2013-04-25 12:18:00,43.9,32.1,30.24,NNE,26,1.0,5.0,63,0.00,,,0.00,VWS V14.01,2013-04-25 17:18:00,
2013-04-25 12:23:00,44.3,32.5,30.24,WNW,288,1.0,7.0,63,0.00,,,0.00,VWS V14.01,2013-04-25 17:23:00,
2013-04-25 12:28:00,44.3,32.9,30.24,North,355,1.0,7.0,64,0.00,,,0.00,VWS V14.01,2013-04-25 17:28:00,
2013-04-25 12:30:00,44.3,32.5,30.24,NW,305,2.0,7.0,63,0.00,,,0.00,VWS V14.01,2013-04-25 17:30:00,
2013-04-25 12:33:00,43.9,31.7,30.24,WNW,298,0.0,10.0,62,0.00,,,0.00,VWS V14.01,2013-04-25 17:33:00,
2013-04-25 12:38:00,44.3,32.9,30.23,East,84,1.0,10.0,64,0.00,,,0.00,VWS V14.01,2013-04-25 17:38:00,
2013-04-25 12:43:00,45.0,33.2,30.23,WSW,242,3.0,10.0,63,0.00,,,0.00,VWS V14.01,2013-04-25 17:43:00,
2013-04-25 12:45:00,45.0,33.2,30.23,NW,317,6.0,10.0,63,0.00,,,0.00,VWS V14.01,2013-04-25 17:45:00,
2013-04-25 12:48:00,44.8,32.2,30.23,WNW,299,4.0,9.0,61,0.00,,,0.00,VWS V14.01,2013-04-25 17:48:00,
2013-04-25 12:53:00,44.4,33.0,30.23,ENE,71,0.0,9.0,64,0.00,,,0.00,VWS V14.01,2013-04-25 17:53:00,
2013-04-25 12:58:00,44.2,31.6,30.23,WNW,302,0.0,9.0,61,0.00,,,0.00,VWS V14.01,2013-04-25 17:58:00,
2013-04-25 13:00:00,44.2,31.6,30.23,WNW,303,0.0,9.0,61,0.00,,,0.00,VWS V14.01,2013-04-25 18:00:00,
2013-04-25 13:04:00,44.3,33.3,30.23,ESE,119,1.0,8.0,65,0.00,,,0.00,VWS V14.01,2013-04-25 18:04:00,
2013-04-25 13:09:00,45.6,32.9,30.23,ENE,61,3.0,8.0,61,0.00,,,0.00,VWS V14.01,2013-04-25 18:09:00,
2013-04-25 13:14:00,46.3,34.4,30.23,NNE,15,1.0,8.0,63,0.00,,,0.00,VWS V14.01,2013-04-25 18:14:00,
2013-04-25 13:15:00,46.3,34.4,30.23,NNE,15,1.0,8.0,63,0.00,,,0.00,VWS V14.01,2013-04-25 18:15:00,
2013-04-25 13:19:00,47.1,33.5,30.23,ENE,61,1.0,4.0,59,0.00,,,0.00,VWS V14.01,2013-04-25 18:19:00,
2013-04-25 13:24:00,47.0,33.4,30.23,SSW,196,6.0,8.0,59,0.00,,,0.00,VWS V14.01,2013-04-25 18:24:00,
2013-04-25 13:29:00,46.7,33.2,30.22,East,86,0.0,1.0,59,0.00,,,0.00,VWS V14.01,2013-04-25 18:29:00,
2013-04-25 13:30:00,46.7,33.2,30.23,East,86,1.0,8.0,59,0.00,,,0.00,VWS V14.01,2013-04-25 18:30:00,
2013-04-25 13:34:00,46.4,32.9,30.22,ENE,72,1.0,7.0,59,0.00,,,0.00,VWS V14.01,2013-04-25 18:34:00,
2013-04-25 13:39:00,46.7,34.0,30.22,South,182,0.0,7.0,61,0.00,,,0.00,VWS V14.01,2013-04-25 18:39:00,
2013-04-25 13:44:00,47.4,33.8,30.22,WNW,302,1.0,4.0,59,0.00,,,0.00,VWS V14.01,2013-04-25 18:44:00,
2013-04-25 13:45:00,47.4,33.8,30.22,ESE,103,4.0,7.0,59,0.00,,,0.00,VWS V14.01,2013-04-25 18:45:00,
2013-04-25 13:49:00,47.7,32.3,30.22,SSW,211,4.0,6.0,55,0.00,,,0.00,VWS V14.01,2013-04-25 18:49:00,
2013-04-25 13:54:00,47.8,33.8,30.22,East,92,1.0,6.0,58,0.00,,,0.00,VWS V14.01,2013-04-25 18:54:00,
2013-04-25 14:00:00,47.4,33.4,30.22,North,9,0.0,0.0,58,0.00,,,0.00,VWS V14.01,2013-04-25 19:00:00,
2013-04-25 14:05:00,47.8,33.3,30.22,ENE,60,2.0,4.0,57,0.00,,,0.00,VWS V14.01,2013-04-25 19:05:00,
2013-04-25 14:10:00,48.5,34.4,30.22,ESE,113,2.0,5.0,58,0.00,,,0.00,VWS V14.01,2013-04-25 19:10:00,
2013-04-25 14:15:00,48.7,32.8,30.22,ESE,122,1.0,4.0,54,0.00,,,0.00,VWS V14.01,2013-04-25 19:15:00,
2013-04-25 14:21:00,48.9,33.5,30.22,South,180,0.0,4.0,55,0.00,,,0.00,VWS V14.01,2013-04-25 19:21:00,
2013-04-25 14:26:00,48.9,32.1,30.21,SSW,195,2.0,10.0,52,0.00,,,0.00,VWS V14.01,2013-04-25 19:26:00,
2013-04-25 14:30:00,48.7,32.8,30.21,East,91,4.0,10.0,54,0.00,,,0.00,VWS V14.01,2013-04-25 19:30:00,
2013-04-25 14:31:00,48.9,33.5,30.21,NE,46,0.0,4.0,55,0.00,,,0.00,VWS V14.01,2013-04-25 19:31:00,
2013-04-25 14:36:00,49.2,32.8,30.21,WSW,249,1.0,6.0,53,0.00,,,0.00,VWS V14.01,2013-04-25 19:36:00,
2013-04-25 14:41:00,49.0,31.7,30.21,ESE,117,0.0,6.0,51,0.00,,,0.00,VWS V14.01,2013-04-25 19:41:00,
2013-04-25 14:45:00,49.2,32.3,30.21,East,93,0.0,6.0,52,0.00,,,0.00,VWS V14.01,2013-04-25 19:45:00,
2013-04-25 14:46:00,49.6,31.7,30.21,SE,138,1.0,2.0,50,0.00,,,0.00,VWS V14.01,2013-04-25 19:46:00,
2013-04-25 14:51:00,49.5,32.1,30.21,West,261,4.0,9.0,51,0.00,,,0.00,VWS V14.01,2013-04-25 19:51:00,
2013-04-25 14:56:00,48.6,31.3,30.21,WSW,243,0.0,9.0,51,0.00,,,0.00,VWS V14.01,2013-04-25 19:56:00,
2013-04-25 15:00:00,48.4,31.6,30.21,South,184,1.0,9.0,52,0.00,,,0.00,VWS V14.01,2013-04-25 20:00:00,
2013-04-25 15:01:00,48.4,31.1,30.21,SE,144,6.0,6.0,51,0.00,,,0.00,VWS V14.01,2013-04-25 20:01:00,
2013-04-25 15:06:00,49.0,31.2,30.20,East,84,0.0,6.0,50,0.00,,,0.00,VWS V14.01,2013-04-25 20:06:00,
2013-04-25 15:12:00,48.8,31.5,30.21,SE,145,0.0,12.0,51,0.00,,,0.00,VWS V14.01,2013-04-25 20:12:00,
2013-04-25 15:15:00,48.8,32.4,30.20,SE,140,2.0,12.0,53,0.00,,,0.00,VWS V14.01,2013-04-25 20:15:00,
2013-04-25 15:17:00,48.9,31.6,30.20,SSW,192,2.0,6.0,51,0.00,,,0.00,VWS V14.01,2013-04-25 20:17:00,
2013-04-25 15:22:00,49.0,31.2,30.21,West,279,1.0,10.0,50,0.00,,,0.00,VWS V14.01,2013-04-25 20:22:00,
2013-04-25 15:27:00,49.3,31.0,30.20,South,176,5.0,10.0,49,0.00,,,0.00,VWS V14.01,2013-04-25 20:27:00,
2013-04-25 15:30:00,49.1,30.8,30.20,SSW,209,1.0,10.0,49,0.00,,,0.00,VWS V14.01,2013-04-25 20:30:00,
2013-04-25 15:32:00,49.2,31.4,30.21,North,355,3.0,6.0,50,0.00,,,0.00,VWS V14.01,2013-04-25 20:32:00,
2013-04-25 15:37:00,49.4,30.5,30.20,South,177,2.0,6.0,48,0.00,,,0.00,VWS V14.01,2013-04-25 20:37:00,
2013-04-25 15:42:00,49.2,30.4,30.20,SSW,194,4.0,7.0,48,0.00,,,0.00,VWS V14.01,2013-04-25 20:42:00,
2013-04-25 15:45:00,49.0,30.2,30.20,SSW,201,3.0,9.0,48,0.00,,,0.00,VWS V14.01,2013-04-25 20:45:00,
2013-04-25 15:47:00,48.9,31.6,30.20,NE,37,0.0,4.0,51,0.00,,,0.00,VWS V14.01,2013-04-25 20:47:00,
2013-04-25 15:52:00,49.4,30.5,30.20,SSW,196,0.0,6.0,48,0.00,,,0.00,VWS V14.01,2013-04-25 20:52:00,
2013-04-25 15:57:00,50.1,31.2,30.20,NW,316,0.0,7.0,48,0.00,,,0.00,VWS V14.01,2013-04-25 20:57:00,
2013-04-25 16:00:00,50.2,30.8,30.20,North,9,0.0,7.0,47,0.00,,,0.00,VWS V14.01,2013-04-25 21:00:00,
2013-04-25 16:02:00,50.5,31.0,30.20,SSE,147,4.0,5.0,47,0.00,,,0.00,VWS V14.01,2013-04-25 21:02:00,
2013-04-25 16:07:00,50.8,31.3,30.20,East,87,3.0,10.0,47,0.00,,,0.00,VWS V14.01,2013-04-25 21:07:00,
2013-04-25 16:13:00,51.0,29.9,30.20,West,273,2.0,10.0,44,0.00,,,0.00,VWS V14.01,2013-04-25 21:13:00,
2013-04-25 16:15:00,51.0,29.9,30.20,WSW,238,0.0,10.0,44,0.00,,,0.00,VWS V14.01,2013-04-25 21:15:00,
2013-04-25 16:18:00,51.1,30.5,30.20,SSW,203,3.0,10.0,45,0.00,,,0.00,VWS V14.01,2013-04-25 21:18:00,
2013-04-25 16:23:00,50.7,29.6,30.20,SSW,192,1.0,11.0,44,0.00,,,0.00,VWS V14.01,2013-04-25 21:23:00,
2013-04-25 16:28:00,50.7,30.7,30.20,NE,53,2.0,11.0,46,0.00,,,0.00,VWS V14.01,2013-04-25 21:28:00,
2013-04-25 16:30:00,50.7,30.7,30.20,West,269,1.0,11.0,46,0.00,,,0.00,VWS V14.01,2013-04-25 21:30:00,
2013-04-25 16:33:00,50.8,30.2,30.19,West,267,5.0,9.0,45,0.00,,,0.00,VWS V14.01,2013-04-25 21:33:00,
2013-04-25 16:38:00,50.5,29.4,30.19,SSE,164,5.0,9.0,44,0.00,,,0.00,VWS V14.01,2013-04-25 21:38:00,
2013-04-25 16:43:00,50.1,29.0,30.19,SW,235,6.0,9.0,44,0.00,,,0.00,VWS V14.01,2013-04-25 21:43:00,
2013-04-25 16:45:00,50.1,29.0,30.19,WSW,240,3.0,9.0,44,0.00,,,0.00,VWS V14.01,2013-04-25 21:45:00,
2013-04-25 16:48:00,50.4,29.9,30.19,South,182,2.0,7.0,45,0.00,,,0.00,VWS V14.01,2013-04-25 21:48:00,
2013-04-25 16:53:00,51.0,30.4,30.19,West,268,0.0,7.0,45,0.00,,,0.00,VWS V14.01,2013-04-25 21:53:00,
2013-04-25 16:58:00,50.6,29.0,30.18,South,177,4.0,7.0,43,0.00,,,0.00,VWS V14.01,2013-04-25 21:58:00,
2013-04-25 17:00:00,50.6,29.0,30.18,SSW,197,3.0,7.0,43,0.00,,,0.00,VWS V14.01,2013-04-25 22:00:00,
2013-04-25 17:03:00,50.7,29.0,30.18,SSE,165,5.0,7.0,43,0.00,,,0.00,VWS V14.01,2013-04-25 22:03:00,
2013-04-25 17:08:00,50.4,29.3,30.18,SSW,199,5.0,8.0,44,0.00,,,0.00,VWS V14.01,2013-04-25 22:08:00,
2013-04-25 17:14:00,50.7,30.1,30.18,SW,214,1.0,8.0,45,0.00,,,0.00,VWS V14.01,2013-04-25 22:14:00,
2013-04-25 17:15:00,50.7,30.1,30.18,South,171,1.0,8.0,45,0.00,,,0.00,VWS V14.01,2013-04-25 22:15:00,
2013-04-25 17:19:00,51.1,30.5,30.18,WNW,296,1.0,4.0,45,0.00,,,0.00,VWS V14.01,2013-04-25 22:19:00,
2013-04-25 17:24:00,51.4,29.1,30.18,South,177,2.0,5.0,42,0.00,,,0.00,VWS V14.01,2013-04-25 22:24:00,
2013-04-25 17:29:00,51.4,29.7,30.18,West,273,0.0,1.0,43,0.00,,,0.00,VWS V14.01,2013-04-25 22:29:00,
2013-04-25 17:30:00,51.4,29.7,30.18,West,273,1.0,6.0,43,0.00,,,0.00,VWS V14.01,2013-04-25 22:30:00,
2013-04-25 17:37:00,50.9,29.8,30.18,SW,225,1.0,9.0,44,0.00,,,0.00,VWS V14.01,2013-04-25 22:37:00,
2013-04-25 17:42:00,50.5,30.0,30.18,South,182,1.0,9.0,45,0.00,,,0.00,VWS V14.01,2013-04-25 22:42:00,
2013-04-25 17:45:00,50.5,30.5,30.17,SSE,153,0.0,9.0,46,0.00,,,0.00,VWS V14.01,2013-04-25 22:45:00,
2013-04-25 17:47:00,50.7,30.1,30.17,WSW,254,1.0,5.0,45,0.00,,,0.00,VWS V14.01,2013-04-25 22:47:00,
2013-04-25 17:52:00,50.8,30.2,30.17,SSE,161,5.0,5.0,45,0.00,,,0.00,VWS V14.01,2013-04-25 22:52:00,
2013-04-25 17:57:00,50.5,30.5,30.17,WSW,250,2.0,6.0,46,0.00,,,0.00,VWS V14.01,2013-04-25 22:57:00,
2013-04-25 18:00:00,50.6,30.1,30.17,SSW,213,0.0,6.0,45,0.00,,,0.00,VWS V14.01,2013-04-25 23:00:00,
2013-04-25 18:02:00,50.8,30.8,30.17,NE,55,0.0,4.0,46,0.00,,,0.00,VWS V14.01,2013-04-25 23:02:00,
2013-04-25 18:07:00,50.9,30.3,30.17,SW,217,0.0,4.0,45,0.00,,,0.00,VWS V14.01,2013-04-25 23:07:00,
2013-04-25 18:12:00,50.9,30.3,30.17,SSW,207,3.0,10.0,45,0.00,,,0.00,VWS V14.01,2013-04-25 23:12:00,
2013-04-25 18:15:00,50.8,30.2,30.17,SW,219,6.0,11.0,45,0.00,,,0.00,VWS V14.01,2013-04-25 23:15:00,
2013-04-25 18:18:00,50.3,29.8,30.17,South,180,2.0,8.0,45,0.00,,,0.00,VWS V14.01,2013-04-25 23:18:00,
2013-04-25 18:23:00,50.1,30.7,30.17,South,186,3.0,9.0,47,0.00,,,0.00,VWS V14.01,2013-04-25 23:23:00,
2013-04-25 18:28:00,50.1,30.7,30.17,SSE,157,5.0,9.0,47,0.00,,,0.00,VWS V14.01,2013-04-25 23:28:00,
2013-04-25 18:30:00,50.1,30.7,30.17,South,186,3.0,9.0,47,0.00,,,0.00,VWS V14.01,2013-04-25 23:30:00,
2013-04-25 18:33:00,49.9,30.5,30.17,South,186,3.0,7.0,47,0.00,,,0.00,VWS V14.01,2013-04-25 23:33:00,
2013-04-25 18:39:00,50.1,30.7,30.17,South,169,1.0,7.0,47,0.00,,,0.00,VWS V14.01,2013-04-25 23:39:00,
2013-04-25 18:44:00,49.6,30.2,30.17,SSE,155,2.0,11.0,47,0.00,,,0.00,VWS V14.01,2013-04-25 23:44:00,
2013-04-25 18:45:00,49.6,30.2,30.17,SSE,155,2.0,11.0,47,0.00,,,0.00,VWS V14.01,2013-04-25 23:45:00,
2013-04-25 18:49:00,49.5,30.1,30.17,SSW,213,2.0,6.0,47,0.00,,,0.00,VWS V14.01,2013-04-25 23:49:00,
2013-04-25 18:54:00,49.5,30.6,30.17,SSE,163,4.0,9.0,48,0.00,,,0.00,VWS V14.01,2013-04-25 23:54:00,
2013-04-25 18:59:00,49.5,30.6,30.17,SW,230,6.0,6.0,48,0.00,,,0.00,VWS V14.01,2013-04-25 23:59:00,
2013-04-25 19:00:00,49.5,30.6,30.17,South,169,6.0,9.0,48,0.00,,,0.00,VWS V14.01,2013-04-26 00:00:00,
2013-04-25 19:04:00,49.3,30.5,30.17,SSW,206,3.0,11.0,48,0.00,,,0.00,VWS V14.01,2013-04-26 00:04:00,
2013-04-25 19:09:00,49.2,30.9,30.16,SSW,192,1.0,11.0,49,0.00,,,0.00,VWS V14.01,2013-04-26 00:09:00,
2013-04-25 19:14:00,49.1,31.3,30.17,SSW,204,2.0,2.0,50,0.00,,,0.00,VWS V14.01,2013-04-26 00:14:00,
2013-04-25 19:15:00,49.1,30.8,30.17,South,186,2.0,11.0,49,0.00,,,0.00,VWS V14.01,2013-04-26 00:15:00,
2013-04-25 19:21:00,49.1,31.3,30.16,South,190,1.0,6.0,50,0.00,,,0.00,VWS V14.01,2013-04-26 00:21:00,
2013-04-25 19:26:00,49.0,31.2,30.17,SSE,166,4.0,6.0,50,0.00,,,0.00,VWS V14.01,2013-04-26 00:26:00,
2013-04-25 19:30:00,48.9,31.1,30.17,South,177,2.0,6.0,50,0.00,,,0.00,VWS V14.01,2013-04-26 00:30:00,
2013-04-25 19:31:00,48.8,31.5,30.17,SSE,165,1.0,5.0,51,0.00,,,0.00,VWS V14.01,2013-04-26 00:31:00,
2013-04-25 19:36:00,48.6,31.8,30.16,SSE,163,4.0,5.0,52,0.00,,,0.00,VWS V14.01,2013-04-26 00:36:00,
2013-04-25 19:41:00,48.4,31.6,30.16,SSE,163,2.0,6.0,52,0.00,,,0.00,VWS V14.01,2013-04-26 00:41:00,
2013-04-25 19:45:00,48.3,31.5,30.16,SSE,158,4.0,6.0,52,0.00,,,0.00,VWS V14.01,2013-04-26 00:45:00,
2013-04-25 19:46:00,48.2,31.9,30.16,SSE,158,5.0,5.0,53,0.00,,,0.00,VWS V14.01,2013-04-26 00:46:00,
2013-04-25 19:51:00,48.0,31.7,30.16,SSE,151,5.0,7.0,53,0.00,,,0.00,VWS V14.01,2013-04-26 00:51:00,
2013-04-25 19:56:00,47.9,32.1,30.16,SE,146,5.0,8.0,54,0.00,,,0.00,VWS V14.01,2013-04-26 00:56:00,
2013-04-25 20:00:00,47.8,32.4,30.16,SE,133,4.0,8.0,55,0.00,,,0.00,VWS V14.01,2013-04-26 01:00:00,
2013-04-25 20:01:00,47.7,31.9,30.16,SE,130,5.0,7.0,54,0.00,,,0.00,VWS V14.01,2013-04-26 01:01:00,
2013-04-25 20:06:00,47.6,32.2,30.15,SE,130,5.0,7.0,55,0.00,,,0.00,VWS V14.01,2013-04-26 01:06:00,
2013-04-25 20:11:00,47.4,31.6,30.15,SE,132,5.0,7.0,54,0.00,,,0.00,VWS V14.01,2013-04-26 01:11:00,
2013-04-25 20:15:00,47.5,31.7,30.16,SE,132,6.0,7.0,54,0.00,,,0.00,VWS V14.01,2013-04-26 01:15:00,
2013-04-25 20:17:00,47.4,32.1,30.16,SE,131,2.0,6.0,55,0.00,,,0.00,VWS V14.01,2013-04-26 01:17:00,
2013-04-25 20:22:00,47.2,31.4,30.15,SE,129,6.0,8.0,54,0.00,,,0.00,VWS V14.01,2013-04-26 01:22:00,
2013-04-25 20:27:00,47.2,31.4,30.15,SE,131,2.0,8.0,54,0.00,,,0.00,VWS V14.01,2013-04-26 01:27:00,
2013-04-25 20:30:00,47.1,31.8,30.15,SE,131,5.0,8.0,55,0.00,,,0.00,VWS V14.01,2013-04-26 01:30:00,
2013-04-25 20:32:00,47.0,31.7,30.15,SE,131,4.0,5.0,55,0.00,,,0.00,VWS V14.01,2013-04-26 01:32:00,
2013-04-25 20:37:00,46.9,32.0,30.16,SE,132,6.0,6.0,56,0.00,,,0.00,VWS V14.01,2013-04-26 01:37:00,
2013-04-25 20:42:00,46.9,32.0,30.15,SE,129,5.0,8.0,56,0.00,,,0.00,VWS V14.01,2013-04-26 01:42:00,
2013-04-25 20:45:00,46.9,32.0,30.15,SE,129,4.0,8.0,56,0.00,,,0.00,VWS V14.01,2013-04-26 01:45:00,
2013-04-25 20:47:00,46.8,32.0,30.15,ESE,118,7.0,8.0,56,0.00,,,0.00,VWS V14.01,2013-04-26 01:47:00,
2013-04-25 20:52:00,46.9,32.0,30.15,SE,128,5.0,11.0,56,0.00,,,0.00,VWS V14.01,2013-04-26 01:52:00,
2013-04-25 20:57:00,46.8,32.0,30.14,SE,126,8.0,12.0,56,0.00,,,0.00,VWS V14.01,2013-04-26 01:57:00,
2013-04-25 21:00:00,46.8,32.0,30.14,SE,130,11.0,12.0,56,0.00,,,0.00,VWS V14.01,2013-04-26 02:00:00,
2013-04-25 21:02:00,46.8,32.0,30.14,SE,131,9.0,14.0,56,0.00,,,0.00,VWS V14.01,2013-04-26 02:02:00,
2013-04-25 21:07:00,46.7,31.9,30.14,SE,132,8.0,14.0,56,0.00,,,0.00,VWS V14.01,2013-04-26 02:07:00,
2013-04-25 21:13:00,46.6,31.8,30.14,SE,133,13.0,14.0,56,0.00,,,0.00,VWS V14.01,2013-04-26 02:13:00,
2013-04-25 21:15:00,46.6,31.8,30.14,SE,132,11.0,15.0,56,0.00,,,0.00,VWS V14.01,2013-04-26 02:15:00,
2013-04-25 21:18:00,46.6,32.2,30.14,SE,126,9.0,14.0,57,0.00,,,0.00,VWS V14.01,2013-04-26 02:18:00,
2013-04-25 21:23:00,46.5,32.1,30.14,SE,130,11.0,14.0,57,0.00,,,0.00,VWS V14.01,2013-04-26 02:23:00,
2013-04-25 21:28:00,46.4,32.0,30.14,SE,129,9.0,14.0,57,0.00,,,0.00,VWS V14.01,2013-04-26 02:28:00,
2013-04-25 21:30:00,46.4,32.0,30.14,SE,132,7.0,14.0,57,0.00,,,0.00,VWS V14.01,2013-04-26 02:30:00,
2013-04-25 21:33:00,46.2,32.2,30.14,SE,129,9.0,14.0,58,0.00,,,0.00,VWS V14.01,2013-04-26 02:33:00,
2013-04-25 21:38:00,46.3,32.8,30.14,SE,126,9.0,14.0,59,0.00,,,0.00,VWS V14.01,2013-04-26 02:38:00,
2013-04-25 21:43:00,46.3,32.8,30.14,SE,127,9.0,14.0,59,0.00,,,0.00,VWS V14.01,2013-04-26 02:43:00,
2013-04-25 21:45:00,46.3,32.8,30.14,SE,133,12.0,14.0,59,0.00,,,0.00,VWS V14.01,2013-04-26 02:45:00,
2013-04-25 21:48:00,46.3,32.8,30.13,SE,126,7.0,13.0,59,0.00,,,0.00,VWS V14.01,2013-04-26 02:48:00,
2013-04-25 21:53:00,46.2,33.1,30.13,SE,126,9.0,13.0,60,0.00,,,0.00,VWS V14.01,2013-04-26 02:53:00,
2013-04-25 21:58:00,46.0,33.3,30.14,SE,130,11.0,13.0,61,0.00,,,0.00,VWS V14.01,2013-04-26 02:58:00,
2013-04-25 22:00:00,46.0,33.3,30.14,SE,128,9.0,13.0,61,0.00,,,0.00,VWS V14.01,2013-04-26 03:00:00,
2013-04-25 22:04:00,46.1,33.4,30.13,SE,127,11.0,13.0,61,0.00,,,0.00,VWS V14.01,2013-04-26 03:04:00,
2013-04-25 22:11:00,46.2,33.5,30.13,SE,136,9.0,13.0,61,0.00,,,0.00,VWS V14.01,2013-04-26 03:11:00,
2013-04-25 22:15:00,46.3,33.6,30.13,SE,130,8.0,13.0,61,0.00,,,0.00,VWS V14.01,2013-04-26 03:15:00,
2013-04-25 22:16:00,46.2,33.5,30.13,SE,139,8.0,13.0,61,0.00,,,0.00,VWS V14.01,2013-04-26 03:16:00,
2013-04-25 22:21:00,46.3,33.6,30.13,SE,140,9.0,13.0,61,0.00,,,0.00,VWS V14.01,2013-04-26 03:21:00,
2013-04-25 22:26:00,46.4,33.7,30.13,SE,136,8.0,13.0,61,0.00,,,0.00,VWS V14.01,2013-04-26 03:26:00,
2013-04-25 22:30:00,46.4,33.7,30.13,SE,128,9.0,14.0,61,0.00,,,0.00,VWS V14.01,2013-04-26 03:30:00,
2013-04-25 22:31:00,46.3,33.6,30.13,SE,144,8.0,15.0,61,0.00,,,0.00,VWS V14.01,2013-04-26 03:31:00,
2013-04-25 22:36:00,46.1,33.4,30.13,SE,131,14.0,15.0,61,0.00,,,0.00,VWS V14.01,2013-04-26 03:36:00,
2013-04-25 22:41:00,46.0,33.7,30.12,SE,136,8.0,15.0,62,0.00,,,0.00,VWS V14.01,2013-04-26 03:41:00,
2013-04-25 22:45:00,46.0,33.7,30.12,SE,136,5.0,15.0,62,0.00,,,0.00,VWS V14.01,2013-04-26 03:45:00,
2013-04-25 22:47:00,45.9,33.6,30.12,SE,134,6.0,12.0,62,0.00,,,0.00,VWS V14.01,2013-04-26 03:47:00,
2013-04-25 22:52:00,45.8,33.5,30.12,SE,141,9.0,13.0,62,0.00,,,0.00,VWS V14.01,2013-04-26 03:52:00,
2013-04-25 22:57:00,45.9,33.6,30.12,SE,140,11.0,15.0,62,0.00,,,0.00,VWS V14.01,2013-04-26 03:57:00,
2013-04-25 23:00:00,45.9,33.6,30.12,SE,138,9.0,15.0,62,0.00,,,0.00,VWS V14.01,2013-04-26 04:00:00,
2013-04-25 23:01:00,45.8,33.5,30.11,SE,144,6.0,13.0,62,0.00,,,0.00,VWS V14.01,2013-04-26 04:01:00,
2013-04-25 23:02:00,45.8,33.5,30.11,SE,131,12.0,14.0,62,0.00,,,0.00,VWS V14.01,2013-04-26 04:02:00,
2013-04-25 23:03:00,45.8,33.5,30.11,SE,141,10.0,14.0,62,0.00,,,0.00,VWS V14.01,2013-04-26 04:03:00,
2013-04-25 23:08:00,45.7,33.4,30.11,SE,139,8.0,15.0,62,0.00,,,0.00,VWS V14.01,2013-04-26 04:08:00,
2013-04-25 23:13:00,45.7,33.4,30.11,ESE,112,9.0,15.0,62,0.00,,,0.00,VWS V14.01,2013-04-26 04:13:00,
2013-04-25 23:15:00,45.7,33.4,30.11,SE,126,13.0,15.0,62,0.00,,,0.00,VWS V14.01,2013-04-26 04:15:00,
2013-04-25 23:18:00,45.8,33.5,30.11,SE,140,10.0,17.0,62,0.00,,,0.00,VWS V14.01,2013-04-26 04:18:00,
2013-04-25 23:23:00,45.7,33.4,30.11,SE,141,10.0,17.0,62,0.00,,,0.00,VWS V14.01,2013-04-26 04:23:00,
2013-04-25 23:28:00,45.6,33.3,30.10,SE,139,8.0,17.0,62,0.00,,,0.00,VWS V14.01,2013-04-26 04:28:00,
2013-04-25 23:30:00,45.6,33.3,30.10,SE,131,9.0,17.0,62,0.00,,,0.00,VWS V14.01,2013-04-26 04:30:00,
2013-04-25 23:33:00,45.6,33.3,30.10,SE,130,9.0,13.0,62,0.00,,,0.00,VWS V14.01,2013-04-26 04:33:00,
2013-04-25 23:39:00,45.6,33.3,30.10,SE,144,9.0,16.0,62,0.00,,,0.00,VWS V14.01,2013-04-26 04:39:00,
2013-04-25 23:44:00,45.5,33.2,30.10,SE,134,15.0,16.0,62,0.00,,,0.00,VWS V14.01,2013-04-26 04:44:00,
2013-04-25 23:45:00,45.5,33.2,30.10,SE,134,15.0,16.0,62,0.00,,,0.00,VWS V14.01,2013-04-26 04:45:00,
2013-04-25 23:49:00,45.6,32.9,30.09,SE,138,10.0,20.0,61,0.00,,,0.00,VWS V14.01,2013-04-26 04:49:00,
2013-04-25 23:54:00,45.6,32.9,30.09,SE,129,16.0,20.0,61,0.00,,,0.00,VWS V14.01,2013-04-26 04:54:00,
2013-04-25 23:59:00,45.6,32.9,30.09,SE,132,9.0,12.0,61,0.00,,,0.00,VWS V14.01,2013-04-26 04:59:00,